Location: Cardiff
(53.7833°N, 113.6000°W)
Time: 14:19:52
(UTC+00:00)

BlueWalker 3 - Visible Passes

Search period start: 09 June 2023 00:00
Search period end: 19 June 2023 00:00
Orbit: 494 x 513 km, 53.2° (Epoch: 08 June)

Date Brightness Start Highest point End Pass type
(mag) Time Alt. Az. Time Alt. Az. Time Alt. Az.
09 Jun 2.1 05:13:28 10° W 05:17:16 57° SSW 05:21:05 10° ESE visible
09 Jun 3.5 06:52:24 10° W 06:55:16 20° SW 06:56:11 18° SSW visible
10 Jun 2.1 04:53:01 10° W 04:56:48 57° SSW 05:00:37 10° ESE visible
10 Jun 3.6 06:31:58 10° W 06:34:48 20° SW 06:36:05 17° SSW visible
11 Jun 3.6 06:11:32 10° W 06:14:19 19° SW 06:16:00 15° S visible
12 Jun 3.7 05:51:04 10° W 05:53:49 19° SW 05:55:59 13° S visible
13 Jun 3.8 05:30:36 10° W 05:33:19 18° SW 05:35:59 10° S visible
14 Jun 3.8 05:10:08 10° W 05:12:49 18° SW 05:15:29 10° S visible
